DateTimeUTC,F1_A11,F1_S11,BsB_S11,BsG_S11,BsR_S11,BbsB_S11,BbsG_S11,BbsR_S11,BaB_A11,BaG_A11,BaR_A11,Tu_S11,T_S11,Uu_S11,U_S11,P_S11,T1_A11
2021-11-28T13:00:00Z,00000200,21000000,,,,,,,-000.40,-000.36,-000.08,18.5,25.7,,00.0,0629.3,30.8
2021-11-28T13:01:00Z,00000200,21000000,,,,,,,0000.05,0000.00,-000.36,18.5,25.7,,00.0,0629.3,30.8
2021-11-28T13:02:00Z,00000200,21000000,,,,,,,-000.05,-000.15,-000.14,18.4,25.7,,00.0,0629.3,30.8
2021-11-28T13:03:00Z,00000200,61000000,,,,,,,0000.47,0000.48,0000.45,18.4,25.7,,00.0,0629.3,30.8
2021-11-28T13:04:00Z,00000200,41000000,0000.53,0000.34,-000.20,0000.59,0000.00,-000.16,0000.02,-000.16,0000.02,18.6,25.5,,00.0,0630.1,30.8
2021-11-28T13:05:00Z,00000200,01000000,0000.62,0000.77,-000.00,0000.09,0000.07,-000.14,-000.14,-000.19,-000.15,18.7,25.5,,00.0,0630.2,30.9
2021-11-28T13:06:00Z,00000200,01000000,0001.03,0000.40,-000.01,0000.54,0000.21,0000.25,0000.22,0000.36,0000.11,18.8,25.5,,00.0,0630.2,30.9
2021-11-28T13:07:00Z,00000200,01000000,0000.27,0000.66,0000.24,-000.04,0000.07,0000.23,0000.01,-000.20,0000.01,18.8,25.5,,00.0,0630.2,30.9
2021-11-28T13:08:00Z,00000200,01000000,0000.77,0000.32,-000.03,0000.51,0000.03,0000.15,0000.26,0000.21,-000.12,18.8,25.5,,00.0,0630.2,30.9
2021-11-28T13:09:00Z,00000200,01000000,0000.18,0000.31,0000.28,0000.55,-000.13,0000.20,0000.21,-000.08,0000.26,18.8,25.5,,00.0,0630.1,30.9
2021-11-28T13:10:00Z,00000200,01000000,0000.65,0000.55,0000.03,0000.16,-000.13,0000.02,0000.08,0000.03,0000.07,18.9,25.5,,00.0,0630.2,30.9
2021-11-28T13:11:00Z,00000200,01000000,0000.69,0000.30,0000.03,0000.81,-000.05,0000.00,-000.45,0000.36,-000.23,18.9,25.5,,00.0,0630.2,30.9
2021-11-28T13:12:00Z,00000200,01000000,0000.22,0000.24,0000.14,-000.59,-000.05,0000.18,0000.20,-000.11,0000.06,18.9,25.5,,00.0,0630.2,30.9
2021-11-28T13:13:00Z,00000200,01000000,0000.76,0000.51,0000.22,0000.39,-000.13,0000.10,-000.03,-000.07,0000.01,18.9,25.5,,00.0,0630.2,30.9
2021-11-28T13:14:00Z,00000200,01000000,0000.65,0000.48,0000.20,0000.58,-000.09,0000.01,0000.31,0000.23,0000.15,18.8,25.5,,00.0,0630.2,30.9
2021-11-28T13:15:00Z,00000200,01000000,0001.21,0000.50,0000.01,0000.42,0000.05,0000.21,0000.62,0000.30,0000.34,18.8,25.5,,00.0,0630.1,30.9
2021-11-28T13:16:00Z,00000200,01000000,0000.47,0000.20,-000.06,0000.71,-000.15,-000.23,-000.12,0000.17,0000.15,18.7,25.5,,00.0,0630.1,30.8
2021-11-28T13:17:00Z,00000200,01000000,0000.55,0000.22,0000.28,0000.13,0000.15,0000.32,0000.15,0000.05,0000.24,18.7,25.4,,00.0,0630.1,30.9
2021-11-28T13:18:00Z,00000200,01000000,0000.58,0000.31,0000.08,0000.75,-000.12,0000.44,0000.28,0000.58,-000.05,18.8,25.4,,00.0,0630.1,30.9
2021-11-28T13:19:00Z,00000200,01000000,0000.27,0000.50,-000.27,0000.66,0000.31,0000.52,0000.27,-000.29,0000.18,18.8,25.4,,00.0,0630.1,30.9
2021-11-28T13:20:00Z,00000200,01000000,0000.60,0000.61,0000.39,0000.24,0000.21,-000.07,-000.15,0000.16,-000.07,18.8,25.5,,00.0,0630.1,30.9
2021-11-28T13:21:00Z,00000200,01000000,0001.17,0000.33,0000.17,0000.03,-000.03,0000.46,-000.01,0000.30,0000.20,18.8,25.5,,00.0,0630.1,30.9
2021-11-28T13:22:00Z,00000200,01000000,0000.31,0000.56,-000.02,-000.02,-000.02,0000.08,0000.48,-000.18,0000.02,18.8,25.5,,00.0,0630.1,30.9
2021-11-28T13:23:00Z,00000200,01000000,0000.53,0000.00,-000.11,0000.41,-000.04,0000.14,-000.08,0000.24,0000.10,18.9,25.5,,00.0,0630.1,30.9
2021-11-28T13:24:00Z,00000200,01000000,0000.64,0000.38,-000.06,-000.15,0000.05,0000.40,0000.22,0000.00,0000.15,18.9,25.5,,00.0,0630.1,30.9
2021-11-28T13:25:00Z,00000200,01000000,0000.44,0000.37,-000.07,0001.15,0000.12,0000.07,0000.10,0000.43,-000.02,18.9,25.5,,00.0,0630.1,30.9
2021-11-28T13:26:00Z,00000200,01000000,0000.51,0000.33,-000.24,-000.15,0000.12,-000.00,0000.38,-000.22,0000.18,18.9,25.5,,00.0,0630.1,30.9
2021-11-28T13:27:00Z,00000200,01000000,0006.85,0006.60,0006.86,0001.63,0001.36,0001.52,0023.62,0024.20,0023.90,18.9,25.5,,00.0,0627.5,30.9
2021-11-28T13:28:00Z,00000200,01000000,0000.87,0000.18,0000.21,-000.03,-000.06,0000.19,0000.78,0000.79,0000.58,18.9,25.5,,00.0,0626.6,30.9
2021-11-28T13:29:00Z,00000200,01000000,0000.68,0000.35,0000.03,0000.26,0000.29,0000.13,-000.05,-000.04,0000.01,18.8,25.4,,00.0,0626.6,30.8
2021-11-28T13:30:00Z,00000200,01000000,0000.03,0000.20,0000.23,0000.15,0000.11,-000.10,-000.25,-000.25,-000.19,18.7,25.4,,00.0,0626.6,30.8
2021-11-28T13:31:00Z,00000200,01000000,0000.67,0000.43,0000.37,0000.63,-000.16,0000.22,0000.35,0000.17,0000.10,18.7,25.4,,00.0,0626.7,30.8
2021-11-28T13:32:00Z,00000200,01000000,0000.44,0000.39,-000.22,0000.28,-000.03,0000.24,0000.04,-000.00,0000.01,18.7,25.4,,00.0,0626.7,30.8
2021-11-28T13:33:00Z,00000200,01000000,0000.70,0000.35,0000.14,0000.14,-000.04,0000.29,-000.06,0000.04,-000.01,18.7,25.4,,00.0,0626.7,30.8
2021-11-28T13:34:00Z,00000200,01000000,0000.88,0000.49,-000.01,0000.43,0000.13,0000.03,0000.00,0000.02,0000.21,18.7,25.4,,00.0,0626.7,30.8
2021-11-28T13:35:00Z,00000200,01000000,0000.81,-000.03,0000.29,0000.48,0000.10,0000.08,0000.24,-000.07,0000.12,18.7,25.4,,00.0,0626.8,30.8
2021-11-28T13:36:00Z,00000200,01000000,0000.74,-000.07,-000.20,0000.46,-000.03,0000.04,0000.13,0000.43,0000.03,18.8,25.4,,00.0,0626.8,30.9
2021-11-28T13:37:00Z,00000200,01000000,0000.55,0000.60,0000.09,0000.21,0000.19,0000.14,0000.30,0000.07,0000.28,18.8,25.4,,00.0,0626.8,30.9
2021-11-28T13:38:00Z,00000200,01000000,0000.80,0000.40,0000.00,-000.25,0000.11,0000.13,0000.05,0000.04,-000.31,18.8,25.4,,00.0,0626.8,30.9
2021-11-28T13:39:00Z,00000200,01000000,0000.53,0000.29,0000.21,0000.66,0000.23,0000.20,0000.07,0000.21,0000.06,18.8,25.4,,00.0,0626.9,30.9
2021-11-28T13:40:00Z,00000200,01000000,0000.47,0000.23,-000.15,0000.81,-000.11,0000.11,-000.01,-000.03,0000.34,18.9,25.4,,00.0,0626.9,30.9
2021-11-28T13:41:00Z,00000200,01000000,0000.31,0000.14,-000.03,0000.06,-000.10,0000.03,0000.01,0000.25,-000.43,18.9,25.5,,00.0,0626.9,30.9
2021-11-28T13:42:00Z,00000200,01000000,0000.44,0000.06,0000.17,0000.38,0000.02,0000.17,0000.36,0000.14,0000.77,18.9,25.5,,00.0,0626.9,30.9
2021-11-28T13:43:00Z,00000200,01000000,0000.60,0000.50,0000.39,0000.54,-000.17,0000.33,0000.18,-000.31,-000.19,18.9,25.5,,00.0,0626.9,30.9
2021-11-28T13:44:00Z,00000200,01000000,0000.93,0000.22,-000.16,0000.04,0000.13,-000.10,0000.10,0000.62,0000.18,18.9,25.5,,00.0,0626.9,30.9
2021-11-28T13:45:00Z,00000200,01000000,0000.45,0000.12,-000.02,-000.27,0000.37,-000.19,-000.19,-000.32,-000.20,18.8,25.4,,00.0,0626.9,30.8
2021-11-28T13:46:00Z,00000200,01000000,0000.27,0000.33,0000.09,0000.19,0000.38,-000.06,0000.23,0000.20,0000.20,18.8,25.4,,00.0,0626.9,30.9
2021-11-28T13:47:00Z,00000200,01000000,0000.44,0000.20,0000.28,-000.00,0000.18,0000.11,0000.08,0000.00,0000.38,18.8,25.4,,00.0,0626.9,30.9
2021-11-28T13:48:00Z,00000200,01000000,0000.56,0000.36,-000.02,0000.91,-000.06,0000.21,0000.01,-000.09,-000.40,18.8,25.4,,00.0,0627.0,30.9
2021-11-28T13:49:00Z,00000200,01000000,0000.71,0000.29,0000.12,-000.10,0000.17,0000.23,0000.45,0000.19,0000.26,18.9,25.5,,00.0,0627.0,30.9
2021-11-28T13:50:00Z,00000200,01000000,0000.84,0000.25,-000.09,0000.32,0000.15,-000.02,-000.24,0000.21,0000.05,18.9,25.4,,00.0,0627.0,30.9
2021-11-28T13:51:00Z,00000200,01000000,0000.92,0000.00,0000.15,0000.78,-000.18,0000.35,0000.23,0000.06,-000.30,18.9,25.5,,00.0,0627.0,30.9
2021-11-28T13:52:00Z,00000200,01000000,0000.10,0000.26,0000.08,0000.14,-000.18,0000.11,-000.06,0000.24,0000.13,18.9,25.5,,00.0,0627.1,30.9
2021-11-28T13:53:00Z,00000200,01000000,0000.19,0000.62,0000.32,0000.47,-000.04,0000.10,0000.45,-000.20,-000.05,19.0,25.5,,00.0,0627.1,30.9
2021-11-28T13:54:00Z,00000200,01000000,0000.43,-000.01,-000.02,0000.63,0000.46,0000.09,-000.16,0000.28,0000.17,19.0,25.5,,00.0,0627.1,30.9
2021-11-28T13:55:00Z,00000200,01000000,0000.25,0000.37,-000.12,0000.33,0000.04,0000.27,-000.10,0000.05,-000.05,19.0,25.5,,00.0,0627.1,30.9
2021-11-28T13:56:00Z,00000200,01000000,0000.32,0000.08,0000.09,-000.34,-000.16,0000.27,0000.24,0000.02,0000.24,19.0,25.5,,00.0,0627.2,30.9
2021-11-28T13:57:00Z,00000200,41000000,,,,,,,0000.82,0000.74,0000.67,19.1,25.5,,00.0,0627.3,30.9
2021-11-28T13:58:00Z,00000200,61000000,,,,,,,-000.63,-000.36,-000.42,18.7,25.6,,00.0,0626.3,30.9
2021-11-28T13:59:00Z,00000200,21000000,,,,,,,-000.15,-000.28,-000.17,18.7,25.7,,00.0,0626.3,30.8
